Regional Weather Roundup
Issued by NWS

Home | Current Version | Previous Version | Graphics & Text | Print | Product List | Glossary On
Versions: 1 2 3 4 5 6 7 8 9 10 11 12 13 14 15 16 17 18 19 20 21 22 23 24 25 26 27
000
ASUS45 KBOI 070410
RWRID

IDAHO REGIONAL WEATHER ROUNDUP
NATIONAL WEATHER SERVICE BOISE ID
900 PM MST TUE DEC 06 2016

NOTE: "FAIR" INDICATES FEW OR NO CLOUDS BELOW 12000 FEET
WITH NO SIGNIFICANT WEATHER AND/OR OBSTRUCTIONS TO VISIBILITY

IDZ012-014-070500-
SOUTHWEST IDAHO


CITY           SKY/WX    TMP DP  RH WIND       PRES   REMARKS
BOISE          CLEAR     18  15  88 W3        30.08R
CALDWELL       CLEAR     16  14  92 W6        30.12R WCI   7
MOUNTAIN HOME  CLEAR     16  15  97 NW9       30.06R WCI   5
$$

IDZ016-017-070500-
SOUTHCENTRAL IDAHO


CITY           SKY/WX    TMP DP  RH WIND       PRES   REMARKS
BURLEY         CLOUDY    20  17  88 W6        29.97R WCI  12
JEROME         CLOUDY    19  18  95 SW9       29.99R WCI   8
TWIN FALLS     CLOUDY    18  15  88 SW10      29.99R WCI   6
$$

IDZ019>023-070500-
SOUTHEAST IDAHO


CITY           SKY/WX    TMP DP  RH WIND       PRES   REMARKS
IDAHO FALLS    CLOUDY    15  10  80 N6        29.92R WCI   6
POCATELLO      FLURRIES  16  14  92 W6        29.95R WCI   7
REXBURG        CLOUDY    14   7  73 NE3       29.90R
$$

IDZ006-010-011-018-031-032-070500-
CENTRAL IDAHO MOUNTAINS


CITY           SKY/WX    TMP DP  RH WIND       PRES   REMARKS
MCCALL         MOCLDY    13   9  84 CALM      29.93R
HAILEY         CLEAR      9   5  85 NW7       29.91R WCI  -3
STANLEY          N/A      3  -1  83 CALM      29.87R
SALMON         CLOUDY     9   7  92 CALM      30.01R
CHALLIS        CLOUDY    11   9  92 CALM      29.93R
$$

IDZ002-004-006-007-026-070500-
NORTHERN IDAHO


CITY           SKY/WX    TMP DP  RH WIND       PRES   REMARKS
LEWISTON       CLOUDY    28  19  69 W9        30.19R WCI  19
LOWELL         NOT AVBL
COEUR D`ALENE  CLEAR     17  12  80 N5        30.16R WCI  10
MULLAN PASS    LGT SNOW   7   3  84 CALM      29.90R FOG
$$




USA.gov is the U.S. government's official web portal to all federal, state and local government web resources and services.